Terug naar catalogus

CZ-6A DEB

ActiefSSO
NORAD 54316·DEBRIS·🇨🇳 China

Gelanceerd Nov 11, 2022 vanaf Taiyuan Satellite Launch Center

Loading…

Volgende Passages (komende 24 uur)

TLE

VersSource: Space-Track

Epoch: Sep 13, 2026, 11:20 UTC

1 54316U 22151BK  26256.47256067  .00000370  00000-0  22140-3 0  9990
2 54316  98.8285 255.8802 0041243  70.2957 290.2657 14.12633192197106

Volg CZ-6A DEB in realtime met AllMySat

Download on the App Store